Content
SEND FEEDBACK

Daily
Averages
Monthly
Summary
United States of America

AGAT, GUAM


Home > North America > United States > Guam
Elevation: 364 feet     Latitude: 13 33N     Longitude: 144 50E

WEATHER
 
SELECT A DAY
Number of Records: 209,133;   Date Range: 1/1/95 - 8/28/14
 
SHARE

PRINT THIS DATA

[ ← Previous Day ]
WEATHER ALMANAC - OCTOBER 14, 2013
[ Next Day → ]
[ °C ]   °F
Weather ElementAverageHighLow
Temperature81 °F86 °F (10:54 am)75.2 °F (3:45 am)
Dewpoint76.7 °F78.8 °F (1:13 am)73.4 °F (3:05 am)
Humidity87.1 %100 % (3:56 am)72 % (11:54 am)
Barometer29.87 in29.91 in (8:54 am)29.83 in (1:54 pm)
Wind Speed5.1 mph12.7 mph (1:54 pm)
Wind Gust20.7 mph (3:45 am)
Weather ElementAverage
Visibility9.2 mi
Wind DirectionESE (113.2 °)

Weather ElementTotal
Precipitation0.76 in
Cooling Degree Days15.6 (Base 65)
Growing Degree Days30.6 (Base 50)
Averaged from 34 records on October 14, 2013
WEATHER CONDITIONS BREAKOUT
WIND DIRECTION BREAKOUT
WEATHER BY HOUR - OCTOBER 14, 2013
[ °C ]   °F
Local TimeTemperatureDewpointHumidityBarometerVisibilityWind DirectionWind SpeedGust SpeedPrecipitationEventsConditions
12:54 AM80.1 °F78.1 °F94 %29.86 in10.0 miSE (130°)5.8 mphScattered Clouds
1:13 AM80.6 °F78.8 °F94 %29.87 in10.0 miSSE (150°)6.9 mphMostly Cloudy
1:45 AM80.6 °F78.8 °F94 %29.87 in10.0 miSE (130°)5.8 mphScattered Clouds
1:54 AM80.1 °F78.1 °F94 %29.85 in10.0 miSE (130°)4.6 mphScattered Clouds
2:54 AM81.0 °F78.1 °F91 %29.84 in10.0 miSSE (160°)8.1 mphScattered Clouds
3:05 AM78.8 °F73.4 °F83 %29.87 in10.0 miWSW (250°)9.2 mphMostly Cloudy
3:45 AM75.2 °F73.4 °F94 %29.89 in0.2 miWSW (240°)9.2 mph20.7 mph0.11 inFog-RainHeavy Rain
3:54 AM75.9 °F75.0 °F97 %29.86 in0.2 miSW (220°)5.8 mph0.65 inFog-RainLight Rain
3:56 AM75.2 °F75.2 °F100 %29.87 in2.5 miSW (230°)4.6 mph0.00 inRainLight Rain
4:03 AM75.2 °F75.2 °F100 %29.86 in10.0 miSW (220°)3.5 mph0.00 inRainLight Rain
4:10 AM75.2 °F75.2 °F100 %29.86 in10.0 miCalm0.00 inMostly Cloudy
4:54 AM77.0 °F75.0 °F94 %29.84 in10.0 miSE (140°)3.5 mph0.00 inOvercast
5:54 AM77.0 °F75.0 °F94 %29.86 in10.0 miESE (110°)6.9 mphPartly Cloudy
6:54 AM78.1 °F75.9 °F93 %29.87 in10.0 miSE (130°)4.6 mphClear
7:54 AM82.0 °F78.1 °F88 %29.89 in10.0 miSSE (150°)5.8 mphPartly Cloudy
8:54 AM82.9 °F78.1 °F85 %29.91 in10.0 miSE (140°)5.8 mphPartly Cloudy
9:54 AM84.0 °F77.0 °F79 %29.91 in10.0 miSSE (160°)5.8 mphPartly Cloudy
10:54 AM86.0 °F77.0 °F74 %29.89 in10.0 miSE (130°)9.2 mphPartly Cloudy
11:54 AM86.0 °F75.9 °F72 %29.87 in10.0 miSE (140°)9.2 mphPartly Cloudy
12:54 PM86.0 °F78.1 °F77 %29.85 in10.0 miSE (140°)11.5 mph16.1 mphScattered Clouds
1:54 PM86.0 °F78.1 °F77 %29.83 in10.0 miSE (140°)12.7 mph18.4 mphScattered Clouds
2:54 PM86.0 °F78.1 °F77 %29.83 in10.0 miSE (130°)9.2 mphPartly Cloudy
3:54 PM86.0 °F75.9 °F72 %29.83 in10.0 miSSE (150°)8.1 mphScattered Clouds
4:54 PM84.0 °F77.0 °F79 %29.84 in10.0 miCalmMostly Cloudy
5:05 PM84.2 °F77.0 °F79 %29.87 in10.0 miCalmMostly Cloudy
5:54 PM82.9 °F77.0 °F82 %29.85 in10.0 miESE (110°)4.6 mphOvercast
6:03 PM82.4 °F77.0 °F84 %29.88 in10.0 miESE (110°)5.8 mphOvercast
6:12 PM82.4 °F77.0 °F84 %29.88 in10.0 miESE (110°)5.8 mphMostly Cloudy
6:54 PM82.0 °F77.0 °F85 %29.87 in10.0 miCalmClear
7:54 PM82.0 °F77.0 °F85 %29.89 in10.0 miCalmPartly Cloudy
8:54 PM80.1 °F77.0 °F90 %29.91 in10.0 miCalmClear
9:54 PM80.1 °F77.0 °F90 %29.90 in10.0 miCalmPartly Cloudy
10:54 PM80.1 °F75.9 °F87 %29.91 in10.0 miCalmPartly Cloudy
11:54 PM78.1 °F75.9 °F93 %29.90 in10.0 miCalmClear
Hourly data recorded from PGUM, located miles away from Agat, Guam







STORIES FROM OUR PARTNERS